Wind_Speed
10 9 7 6 6 6 5 5 6 6 6 6 5 4 2 4 6 5 4 4 4 7 10 12 14 15 14 15 15 15 12 14 17 11 12 15 13 16 16 16 15 12 8 3 7
11 9 8 7 7 6 6 5 5 5 4 4 5 5 4 2 3 5 6 6 6 5 6 8 10 13 15 15 15 15 14 12 14 12 11 15 15 18 17 15 13 10 5 3 4
12 11 10 8 7 7 7 6 5 5 6 5 4 5 5 4 0 3 3 3 5 6 6 5 8 11 13 14 14 14 12 12 13 13 12 11 14 19 17 16 10 10 7 7 6
13 12 11 10 9 8 8 8 7 6 6 6 6 6 5 4 2 2 2 2 3 4 5 7 9 11 12 12 13 11 12 13 14 12 12 9 11 18 14 11 12 14 11 11 11
13 12 11 11 11 10 9 9 9 8 7 7 6 6 7 7 7 7 3 3 3 4 6 8 9 9 8 9 9 8 10 12 13 10 12 12 11 13 11 12 12 10 14 15 15
13 12 11 11 11 11 10 10 9 9 9 9 9 8 9 9 9 9 9 7 5 6 8 10 10 9 8 9 8 7 9 11 13 12 8 7 12 13 10 11 10 9 11 15 18
14 13 11 10 10 10 11 9 8 8 9 9 9 9 8 11 10 9 10 11 9 10 12 13 12 10 9 8 11 12 13 13 13 13 9 8 12 12 9 11 12 13 14 16 18
15 14 12 11 10 9 9 9 8 7 9 9 9 10 9 11 11 12 13 12 11 12 15 14 13 11 9 10 11 12 12 9 10 10 12 12 14 12 12 15 18 18 15 17 21
16 16 15 14 13 11 11 11 10 10 10 10 11 11 11 11 12 15 15 14 13 15 17 16 14 12 13 13 13 12 7 8 5 8 7 10 6 8 10 11 16 18 16 17 19
16 17 17 16 17 15 15 14 14 13 13 14 14 8 5 7 10 13 17 17 16 21 19 17 14 13 12 7 4 4 4 4 7 12 6 6 4 3 7 10 11 17 15 17 15
17 16 18 16 16 16 16 16 17 18 14 15 15 14 17 14 12 15 17 16 17 22 21 17 16 17 7 5 4 7 4 6 8 9 8 5 4 3 5 6 9 21 17 12 17
17 16 17 17 16 17 15 15 16 19 16 16 16 16 18 19 19 21 21 21 22 22 20 19 19 15 12 10 6 5 6 5 8 9 9 6 7 8 7 6 8 14 16 18 19
20 17 16 16 16 16 16 16 17 21 23 12 8 4 8 12 18 24 24 23 22 20 19 19 8 1 11 9 8 6 5 2 7 10 8 6 11 10 10 9 10 11 11 14 19
22 19 17 17 15 15 15 15 15 16 13 5 5 5 7 5 6 22 23 22 23 21 17 18 14 17 15 15 11 8 5 3 2 7 10 11 8 17 14 14 13 12 13 15 16
22 20 18 16 15 15 14 15 13 13 5 5 3 4 4 4 4 1 26 24 24 23 20 17 14 8 12 14 12 8 8 7 7 8 8 13 8 13 19 16 14 15 10 10 12
24 21 18 16 13 13 13 12 10 3 5 2 1 5 5 5 2 2 6 33 27 25 25 20 18 15 11 13 13 9 11 12 11 11 10 14 16 13 19 21 18 16 15 13 15
23 22 19 15 13 11 11 9 4 4 3 2 5 7 6 6 7 8 9 16 19 14 19 26 27 26 22 20 18 13 13 11 9 8 9 15 14 9 20 20 20 17 16 19 21
22 21 19 15 13 10 10 8 5 5 8 10 12 12 8 5 3 2 9 12 5 20 16 12 17 22 20 20 16 16 18 14 12 11 11 15 10 9 19 20 19 17 17 16 17
23 21 18 16 14 11 8 4 4 7 9 13 16 14 5 4 3 5 4 3 1 3 7 10 11 13 15 16 16 15 16 17 11 8 7 10 6 11 21 20 19 18 17 17 17
24 22 18 18 16 14 10 6 9 11 12 13 9 7 7 11 9 7 8 5 1 0 6 4 6 9 11 14 15 13 10 5 8 6 10 7 8 9 27 23 21 20 20 21 22
25 23 20 18 17 15 10 7 9 11 11 8 7 9 11 11 10 12 8 14 20 22 18 15 11 11 8 6 6 6 6 6 6 5 6 11 7 15 23 26 25 23 23 24 26
26 23 18 17 16 14 12 9 10 10 11 12 13 14 12 8 8 8 7 7 5 7 6 9 13 19 28 30 26 24 26 25 11 9 5 6 8 15 22 23 20 19 20 22 24
30 24 20 17 14 14 12 12 12 14 12 12 12 13 12 9 7 7 8 6 6 6 4 3 6 4 3 9 11 14 19 19 19 18 18 13 8 17 22 18 19 21 25 28 30
33 24 21 17 8 12 16 16 13 14 13 14 14 14 13 10 7 4 5 5 6 10 12 14 15 14 14 7 7 9 11 12 12 8 11 15 12 14 15 23 28 29 28 25 23
29 24 21 17 19 18 18 17 18 16 13 14 15 15 13 8 7 8 8 9 11 15 13 12 14 15 19 20 22 23 22 22 24 19 16 18 18 16 23 22 15 14 16 19 20
25 24 22 20 19 19 18 16 16 14 13 14 17 17 15 11 11 11 11 12 10 9 9 13 17 16 20 17 22 26 25 25 25 23 26 24 26 19 9 10 13 17 20 21 23
24 23 22 22 21 20 20 18 17 15 13 14 16 17 16 14 14 13 12 12 14 15 14 17 16 12 8 13 13 14 21 23 22 21 18 13 10 10 12 14 18 19 22 24 27
Wind_Direction
356 350 343 335 329 332 340 350 4 14 21 27 27 20 339 255 249 245 235 225 217 216 214 219 223 218 215 216 219 218 206 186 165 146 158 174 174 180 186 185 188 189 186 201 266
353 347 338 331 323 319 314 315 324 336 353 13 21 23 13 327 258 247 242 247 245 232 218 226 228 214 213 211 213 212 212 190 182 165 157 179 175 178 182 184 191 195 180 191 269
354 350 341 330 324 318 312 311 310 305 308 322 338 352 359 11 37 223 243 256 248 237 234 227 215 209 209 207 211 212 209 190 191 190 176 167 181 186 192 189 178 197 193 178 195
0 353 348 340 326 316 312 310 305 305 310 307 299 300 312 320 281 279 249 236 242 232 217 215 207 200 203 211 219 222 214 200 192 211 197 188 179 193 187 192 197 197 195 183 185
3 356 349 344 342 330 315 306 303 304 305 299 298 297 287 282 286 292 269 275 266 224 199 203 202 196 199 207 223 227 230 220 215 218 214 208 192 189 179 190 208 218 202 196 191
356 356 349 342 341 342 337 320 314 316 313 308 301 294 284 283 278 272 260 275 266 231 213 215 219 209 212 221 225 224 228 224 226 215 221 226 215 214 209 210 222 237 236 219 214
336 343 344 337 336 338 339 338 331 317 314 310 307 299 287 272 266 269 258 255 249 230 223 232 237 232 231 235 246 250 256 253 241 228 217 226 231 232 235 236 248 246 234 236 229
332 324 326 330 326 326 325 326 323 315 303 302 300 292 284 268 256 246 242 241 242 246 228 235 239 242 251 245 254 268 276 268 258 243 236 233 240 243 250 257 258 257 264 247 227
343 327 321 318 317 316 312 312 307 301 299 302 294 286 281 267 251 241 232 226 227 227 215 228 236 246 259 268 278 269 248 253 214 196 207 207 234 219 226 256 264 249 240 249 232
337 335 330 322 315 319 316 309 304 298 299 298 296 283 260 272 264 241 230 225 220 212 215 222 235 245 252 257 240 143 169 198 197 200 187 195 171 230 244 272 217 199 205 221 226
345 328 317 319 322 320 319 321 316 311 308 299 288 280 276 272 249 237 221 217 207 208 211 221 231 237 241 219 257 224 262 291 216 212 203 203 173 224 251 284 253 204 203 215 229
348 345 334 321 319 321 323 320 317 312 318 309 290 284 268 251 231 224 214 204 204 211 217 228 244 251 240 237 219 235 279 273 212 215 202 211 169 200 187 230 199 210 224 229 230
340 340 337 337 328 320 317 319 320 321 329 326 313 295 276 278 254 231 216 214 218 221 231 234 231 252 214 217 224 253 240 302 221 218 205 202 177 201 218 230 225 219 231 240 239
334 332 332 332 329 323 313 310 317 326 329 360 4 332 343 321 280 226 215 222 226 231 233 242 241 255 263 246 244 255 222 275 215 196 212 198 209 206 208 228 237 268 270 267 259
347 340 334 333 332 329 320 312 319 331 329 341 342 317 354 69 69 219 221 228 232 239 233 236 248 276 268 240 224 255 255 265 265 245 224 203 214 210 220 211 249 267 255 252 255
354 352 346 341 338 333 328 316 317 329 254 334 345 324 286 235 274 317 243 223 236 243 247 250 254 260 268 240 255 264 266 257 253 230 229 221 221 210 206 219 226 230 233 253 277
352 353 351 344 343 337 329 322 298 208 302 319 280 345 337 292 258 249 243 220 225 238 237 247 248 257 262 266 263 256 231 227 226 220 250 228 218 245 210 213 213 221 237 263 269
351 354 353 346 338 331 323 315 237 240 244 275 292 307 318 319 274 262 213 197 216 236 242 249 248 245 252 249 248 240 218 231 251 245 252 201 214 207 206 205 213 225 238 244 250
349 351 349 349 344 337 322 292 241 258 267 276 291 306 272 237 299 293 267 188 191 212 215 248 253 247 234 229 226 227 221 237 235 250 243 219 205 199 200 208 214 220 228 236 245
340 343 343 340 341 338 325 287 271 274 276 284 289 278 269 283 298 293 277 287 235 154 17 10 285 235 219 219 223 227 235 223 218 234 242 215 215 222 209 211 220 230 240 248 253
333 329 332 331 330 327 322 297 290 275 272 271 260 261 285 299 295 287 261 256 260 264 273 281 299 276 308 213 249 243 216 253 265 248 264 253 230 222 208 215 226 237 248 257 262
331 331 325 320 320 314 309 302 289 262 262 265 273 286 287 283 274 271 260 233 260 256 284 261 251 251 264 270 266 281 275 260 246 257 241 275 259 229 217 220 235 254 270 282 288
332 328 322 319 310 303 298 291 278 268 259 257 262 269 270 274 265 245 268 252 250 262 246 201 237 276 283 255 242 232 250 250 241 235 242 243 253 244 241 249 271 289 293 295 294
329 328 323 318 291 295 293 290 267 268 261 251 252 257 267 278 245 250 261 269 269 278 273 269 254 233 244 262 266 246 232 237 243 235 245 242 255 255 254 268 277 282 282 287 291
324 319 315 297 294 291 289 280 278 265 257 254 252 252 265 251 246 254 246 259 280 289 275 247 253 253 258 259 263 263 260 262 262 257 251 266 258 259 275 280 273 276 285 293 293
315 311 307 300 296 290 286 284 274 274 262 248 243 247 259 249 245 255 268 287 286 283 267 243 274 278 275 265 261 264 260 256 258 260 263 263 276 283 265 278 281 292 300 306 305
311 303 298 298 295 289 281 274 271 266 261 249 246 245 253 252 249 254 272 281 288 282 272 267 268 271 263 274 271 273 266 262 257 262 263 258 265 284 286 281 289 296 302 303 303
Height
3163 3162 3161 3160 3159 3159 3158 3158 3158 3157 3156 3155 3155 3154 3154 3154 3155 3155 3156 3157 3157 3158 3159 3161 3162 3165 3167 3169 3172 3174 3177 3179 3180 3180 3180 3180 3180 3182 3183 3184 3186 3188 3189 3190 3189
3162 3161 3160 3159 3158 3158 3157 3157 3157 3157 3156 3155 3155 3154 3154 3154 3154 3155 3156 3155 3156 3157 3159 3160 3161 3162 3165 3167 3169 3172 3174 3177 3178 3179 3178 3178 3179 3180 3183 3184 3185 3187 3189 3189 3188
3161 3160 3159 3158 3157 3157 3156 3155 3155 3155 3155 3155 3154 3154 3154 3153 3154 3154 3154 3155 3155 3156 3157 3158 3160 3162 3164 3165 3167 3169 3172 3174 3175 3176 3177 3177 3178 3179 3180 3183 3185 3187 3187 3189 3190
3160 3159 3158 3156 3156 3155 3155 3154 3154 3154 3154 3154 3154 3154 3153 3153 3156 3153 3153 3154 3154 3155 3157 3157 3159 3160 3162 3164 3165 3168 3169 3171 3173 3174 3176 3177 3177 3178 3180 3182 3184 3184 3185 3187 3189
3159 3157 3156 3155 3154 3154 3154 3153 3152 3152 3153 3153 3153 3153 3153 3153 3154 3153 3153 3153 3154 3155 3156 3157 3158 3159 3161 3162 3164 3165 3167 3168 3170 3172 3174 3175 3177 3177 3178 3179 3181 3183 3184 3186 3187
3158 3156 3154 3153 3152 3152 3151 3151 3151 3151 3151 3151 3151 3152 3152 3153 3152 3152 3152 3153 3153 3154 3155 3156 3157 3159 3160 3161 3163 3164 3165 3166 3168 3170 3172 3174 3175 3175 3178 3178 3179 3180 3182 3183 3185
3157 3155 3153 3152 3151 3150 3150 3149 3149 3149 3148 3148 3148 3148 3149 3150 3149 3150 3150 3151 3152 3153 3153 3154 3155 3157 3159 3160 3161 3162 3163 3164 3166 3168 3170 3171 3172 3172 3174 3175 3176 3177 3179 3180 3181
3155 3153 3151 3149 3149 3148 3147 3147 3146 3146 3145 3145 3145 3145 3145 3145 3145 3146 3147 3148 3149 3150 3151 3152 3153 3155 3156 3158 3159 3160 3161 3162 3163 3164 3166 3168 3169 3169 3170 3170 3172 3173 3175 3176 3178
3153 3151 3149 3148 3146 3145 3144 3144 3143 3143 3142 3142 3142 3142 3142 3141 3142 3142 3144 3145 3146 3147 3148 3149 3151 3152 3154 3155 3156 3156 3158 3158 3160 3161 3161 3164 3165 3165 3166 3166 3167 3168 3170 3171 3173
3151 3148 3146 3145 3144 3143 3142 3141 3140 3140 3139 3139 3138 3140 3140 3139 3139 3139 3140 3141 3143 3144 3146 3148 3148 3149 3151 3152 3153 3152 3154 3155 3156 3159 3159 3160 3161 3162 3162 3161 3160 3161 3163 3165 3167
3149 3146 3143 3142 3141 3140 3140 3138 3139 3138 3136 3136 3136 3136 3134 3135 3137 3136 3137 3138 3140 3142 3143 3144 3146 3145 3148 3149 3149 3150 3151 3152 3153 3154 3156 3157 3159 3157 3158 3157 3156 3157 3159 3161 3163
3147 3144 3140 3139 3137 3136 3135 3134 3133 3132 3133 3131 3129 3129 3129 3130 3132 3132 3134 3137 3137 3139 3141 3143 3142 3144 3145 3146 3147 3147 3148 3148 3149 3150 3153 3154 3155 3154 3154 3154 3154 3154 3154 3156 3158
3144 3142 3139 3137 3135 3134 3132 3131 3129 3127 3128 3128 3125 3125 3126 3126 3127 3129 3132 3133 3135 3137 3138 3139 3142 3140 3142 3143 3144 3145 3145 3145 3146 3146 3149 3151 3152 3150 3150 3150 3151 3152 3152 3153 3154
3141 3139 3137 3135 3135 3131 3129 3127 3127 3126 3125 3126 3124 3124 3124 3122 3123 3126 3129 3134 3134 3135 3136 3137 3138 3138 3139 3140 3142 3142 3142 3142 3142 3143 3144 3145 3146 3145 3145 3146 3147 3147 3148 3148 3149
3138 3136 3134 3132 3131 3130 3129 3126 3126 3126 3127 3126 3124 3123 3123 3124 3124 3123 3127 3128 3130 3132 3134 3134 3134 3135 3135 3136 3138 3140 3140 3140 3139 3140 3140 3141 3143 3141 3141 3142 3143 3143 3144 3144 3144
3137 3134 3131 3130 3129 3128 3126 3125 3126 3128 3124 3124 3123 3122 3123 3122 3122 3122 3123 3125 3127 3128 3129 3132 3132 3132 3133 3134 3134 3135 3136 3136 3136 3136 3135 3136 3138 3136 3136 3137 3138 3139 3139 3140 3140
3135 3133 3129 3127 3126 3125 3124 3125 3127 3124 3124 3124 3122 3122 3122 3121 3120 3120 3121 3122 3124 3125 3125 3127 3128 3128 3129 3130 3130 3131 3132 3131 3131 3131 3128 3130 3132 3130 3130 3132 3133 3134 3135 3136 3136
3135 3132 3128 3126 3124 3123 3122 3124 3124 3121 3121 3120 3120 3120 3121 3121 3120 3118 3118 3119 3119 3120 3122 3122 3123 3122 3124 3124 3125 3124 3127 3125 3122 3121 3123 3125 3124 3125 3126 3127 3128 3129 3130 3130 3130
3133 3131 3127 3125 3122 3121 3121 3120 3119 3119 3118 3118 3119 3118 3118 3119 3119 3117 3116 3118 3117 3117 3119 3117 3118 3117 3117 3118 3120 3120 3120 3121 3121 3121 3121 3121 3121 3121 3122 3123 3124 3125 3125 3126 3126
3131 3128 3125 3122 3119 3118 3118 3117 3116 3116 3115 3114 3115 3117 3116 3116 3116 3114 3115 3116 3116 3115 3116 3116 3116 3114 3114 3114 3114 3115 3117 3118 3117 3117 3115 3116 3117 3115 3116 3118 3120 3121 3121 3120 3120
3126 3124 3122 3119 3117 3115 3115 3114 3113 3112 3113 3113 3113 3113 3113 3114 3112 3112 3111 3111 3111 3113 3114 3116 3118 3113 3114 3111 3112 3114 3113 3115 3115 3114 3109 3109 3110 3110 3111 3113 3115 3116 3116 3115 3114
3121 3120 3118 3115 3115 3111 3110 3110 3110 3109 3109 3109 3110 3110 3109 3110 3109 3108 3108 3107 3107 3108 3108 3110 3109 3108 3108 3107 3109 3108 3108 3110 3111 3112 3111 3112 3110 3108 3107 3108 3109 3110 3110 3108 3107
3116 3115 3112 3111 3109 3107 3106 3105 3105 3105 3105 3105 3106 3106 3106 3106 3107 3104 3104 3105 3105 3107 3108 3108 3107 3106 3103 3104 3102 3103 3101 3101 3102 3104 3104 3105 3103 3103 3104 3104 3104 3104 3103 3103 3101
3109 3108 3106 3104 3103 3102 3101 3101 3101 3099 3100 3100 3101 3102 3102 3102 3102 3101 3102 3103 3102 3103 3104 3105 3103 3103 3101 3101 3100 3099 3099 3099 3099 3100 3099 3098 3099 3100 3101 3100 3100 3099 3098 3097 3096
3104 3101 3101 3100 3099 3097 3096 3096 3095 3097 3096 3096 3096 3098 3098 3099 3099 3099 3098 3099 3099 3100 3099 3100 3098 3098 3096 3097 3095 3093 3093 3094 3093 3095 3094 3096 3094 3096 3094 3093 3093 3093 3092 3091 3090
3100 3097 3095 3094 3092 3091 3090 3088 3088 3088 3090 3091 3093 3092 3093 3095 3095 3096 3096 3096 3094 3094 3095 3096 3094 3092 3088 3089 3088 3085 3086 3087 3087 3087 3086 3088 3087 3086 3086 3086 3087 3086 3085 3083 3080
3093 3091 3089 3088 3086 3085 3085 3083 3082 3083 3084 3085 3086 3087 3089 3090 3090 3090 3091 3091 3091 3090 3090 3090 3089 3088 3085 3083 3082 3080 3078 3079 3080 3080 3082 3083 3084 3082 3081 3081 3081 3080 3078 3075 3073